GORIZONT 25 1 21922U 92017A 10245.64415402 -.00000012 00000-0 10000-3 0 3849 2 21922 012.3470 037.7786 0027177 314.5312 045.3259 00.99857385 67360 GORIZONT 26 1 22041U 92043A 10244.44185374 -.00000008 +00000-0 +10000-3 0 00033 2 22041 012.2251 039.1818 0030372 112.3808 248.0218 00.99240308066251 GORIZONT 27 1 22245U 92082A 10244.17291024 -.00000047 +00000-0 +10000-3 0 05759 2 22245 012.1367 040.1321 0011912 243.0979 116.8612 01.00211108069369 GORIZONT 28 1 22880U 93069A 10244.41275127 -.00000131 +00000-0 +10000-3 0 03935 2 22880 011.6982 043.4006 0033982 010.7654 349.3921 00.99648769061662 GORIZONT 29 1 22907U 93072A 10243.36982168 -.00000265 00000-0 10000-3 0 7855 2 22907 011.6702 043.4498 0011267 216.6736 143.3326 01.00127773 61433 GORIZONT 30 1 23108U 94030A 10241.21058042 -.00000076 +00000-0 +10000-3 0 06041 2 23108 011.5230 044.6927 0001286 142.8096 217.2889 01.00279925059621 GORIZONT 31 1 23775U 96005A 10238.81510268 -.00000315 00000-0 10000-3 0 9982 2 23775 010.5283 050.3451 0020065 076.9448 283.4067 00.99899390 53389 GORIZONT 32 1 23880U 96034A 10245.76221955 -.00000369 +00000-0 +10000-3 0 05553 2 23880 010.4082 051.2013 0006455 247.5767 074.8556 01.00271391052273 GORIZONT 33 1 26372U 00029A 10241.30340714 -.00000201 00000-0 10000-3 0 7302 2 26372 007.7037 060.2164 0002676 346.2501 013.9037 01.00238205 37562